< < Back
Terminal Aerodrome Forecast


Current Version              Previous Versions:   1  2  3  4  5  6  7  8  9  

Terminal Aerodrome Forecast

454
FTUS42 KFFC 011720
TAFFTY
TAF
KFTY 011720Z 0118/0218 28007KT P6SM FEW045
     FM020000 28002KT P6SM FEW250
     FM021400 28004KT P6SM FEW040=

Latest METAR

045
SAUS70 KWBC 020500 RRO
MTRFTY
METAR KFTY 020453Z AUTO 00000KT 10SM CLR 23/18 A3002 RMK AO2 SLP154
T02330183 403440228


USA.gov is the U.S. government's official web portal to all federal, state and local government web resources and services.